• In Deutschland
  • Länderverzeichnis
  • Für 7 Tage
  • Wassertemperatur
  • Satellitenkarten
  • Wetterkarte
  • Widgets
  • user-avatar
    Anmelden

    Stündliche Wetter Mykhailivtsi

    Heute, 23 Juli, Montag

    Zeit Temperatur Niederschläge Wind Luftdruck Luftfeuchtigkeit
    00:00 +18°C° 0 mm 2 m/S 730 mmHg 88%
    01:00 +18°C° 0 mm 2 m/S 729 mmHg 90%
    02:00 +18°C° 0 mm 2 m/S 729 mmHg 91%
    03:00 +17°C° 0 mm 2 m/S 729 mmHg 92%
    04:00 +17°C° 0 mm 2 m/S 729 mmHg 92%
    05:00 +17°C° 0 mm 2 m/S 729 mmHg 93%
    06:00 +18°C° 0,1 mm 3 m/S 729 mmHg 89%
    07:00 +20°C° 0,1 mm 4 m/S 729 mmHg 85%
    08:00 +21°C° 0,1 mm 4 m/S 729 mmHg 81%
    09:00 +22°C° 0,8 mm 4 m/S 729 mmHg 80%
    10:00 +22°C° 0,8 mm 4 m/S 729 mmHg 80%
    11:00 +22°C° 0,8 mm 4 m/S 729 mmHg 79%
    12:00 +23°C° 1,1 mm 4 m/S 728 mmHg 77%
    13:00 +23°C° 1,1 mm 5 m/S 728 mmHg 76%
    14:00 +25°C° 1,1 mm 5 m/S 728 mmHg 75%
    15:00 +25°C° 1,7 mm 4 m/S 728 mmHg 76%
    16:00 +25°C° 1,7 mm 4 m/S 728 mmHg 78%
    17:00 +23°C° 1,7 mm 4 m/S 728 mmHg 79%
    18:00 +22°C° 1,4 mm 4 m/S 728 mmHg 83%
    19:00 +21°C° 1,4 mm 3 m/S 727 mmHg 87%
    20:00 +20°C° 1,4 mm 3 m/S 727 mmHg 91%
    21:00 +20°C° 0,5 mm 3 m/S 727 mmHg 92%
    22:00 +19°C° 0,5 mm 2 m/S 727 mmHg 93%
    23:00 +19°C° 0,5 mm 2 m/S 727 mmHg 95%

    Morgen, 24 Juli, Dienstag

    Zeit Temperatur Niederschläge Wind Luftdruck Luftfeuchtigkeit
    00:00 +18°C° 0,1 mm 2 m/S 727 mmHg 95%
    01:00 +18°C° 0,1 mm 3 m/S 727 mmHg 96%
    02:00 +18°C° 0,1 mm 3 m/S 727 mmHg 96%
    03:00 +18°C° 0 mm 3 m/S 727 mmHg 97%
    04:00 +18°C° 0 mm 3 m/S 728 mmHg 97%
    05:00 +18°C° 0 mm 3 m/S 728 mmHg 98%
    06:00 +18°C° 0 mm 3 m/S 728 mmHg 96%
    07:00 +19°C° 0 mm 3 m/S 728 mmHg 94%
    08:00 +20°C° 0 mm 4 m/S 728 mmHg 92%
    09:00 +20°C° 0,1 mm 4 m/S 729 mmHg 90%
    10:00 +21°C° 0,1 mm 4 m/S 729 mmHg 88%
    11:00 +21°C° 0,1 mm 4 m/S 729 mmHg 87%
    12:00 +22°C° 0,4 mm 4 m/S 729 mmHg 83%
    13:00 +23°C° 0,4 mm 4 m/S 729 mmHg 79%
    14:00 +25°C° 0,4 mm 4 m/S 729 mmHg 75%
    15:00 +25°C° 0,5 mm 4 m/S 729 mmHg 76%
    16:00 +25°C° 0,5 mm 3 m/S 729 mmHg 77%
    17:00 +25°C° 0,5 mm 3 m/S 729 mmHg 77%
    18:00 +24°C° 0,2 mm 3 m/S 729 mmHg 81%
    19:00 +22°C° 0,2 mm 3 m/S 729 mmHg 85%
    20:00 +21°C° 0,2 mm 2 m/S 729 mmHg 89%
    21:00 +20°C° 0,1 mm 2 m/S 729 mmHg 90%
    22:00 +20°C° 0,1 mm 2 m/S 729 mmHg 91%
    23:00 +19°C° 0,1 mm 2 m/S 729 mmHg 93%

    übermorgen, 25 Juli, Mittwoch

    Zeit Temperatur Niederschläge Wind Luftdruck Luftfeuchtigkeit
    00:00 +19°C° 0,1 mm 2 m/S 729 mmHg 93%
    01:00 +18°C° 0,1 mm 2 m/S 729 mmHg 94%
    02:00 +18°C° 0,1 mm 2 m/S 729 mmHg 95%
    03:00 +18°C° 0,1 mm 2 m/S 729 mmHg 96%
    04:00 +18°C° 0,1 mm 2 m/S 730 mmHg 96%
    05:00 +17°C° 0,1 mm 2 m/S 730 mmHg 97%
    06:00 +19°C° 0,1 mm 2 m/S 730 mmHg 93%
    07:00 +20°C° 0,1 mm 3 m/S 730 mmHg 90%
    08:00 +21°C° 0,1 mm 3 m/S 730 mmHg 87%
    09:00 +22°C° 0,4 mm 3 m/S 730 mmHg 83%
    10:00 +24°C° 0,4 mm 3 m/S 731 mmHg 79%
    11:00 +25°C° 0,4 mm 2 m/S 731 mmHg 74%
    12:00 +26°C° 1,3 mm 2 m/S 731 mmHg 71%
    13:00 +27°C° 1,3 mm 2 m/S 731 mmHg 67%
    14:00 +28°C° 1,3 mm 2 m/S 731 mmHg 63%
    15:00 +28°C° 0,9 mm 2 m/S 731 mmHg 63%
    16:00 +28°C° 0,9 mm 1 m/S 731 mmHg 63%
    17:00 +28°C° 0,9 mm 1 m/S 731 mmHg 64%
    18:00 +26°C° 0,1 mm 1 m/S 731 mmHg 69%
    19:00 +25°C° 0,1 mm 1 m/S 731 mmHg 74%
    20:00 +23°C° 0,1 mm 2 m/S 731 mmHg 79%
    21:00 +23°C° 0,1 mm 2 m/S 731 mmHg 82%
    22:00 +21°C° 0,1 mm 2 m/S 731 mmHg 84%
    23:00 +21°C° 0,1 mm 2 m/S 731 mmHg 86%

    26 Juli, Donnerstag

    Zeit Temperatur Niederschläge Wind Luftdruck Luftfeuchtigkeit
    00:00 +21°C° 0 mm 1 m/S 731 mmHg 87%
    01:00 +21°C° 0 mm 1 m/S 731 mmHg 88%
    02:00 +21°C° 0 mm 1 m/S 731 mmHg 89%
    03:00 +20°C° 0,1 mm 1 m/S 731 mmHg 90%
    04:00 +20°C° 0,1 mm 1 m/S 731 mmHg 90%
    05:00 +20°C° 0,1 mm 1 m/S 732 mmHg 91%
    06:00 +21°C° 0 mm 1 m/S 732 mmHg 87%
    07:00 +23°C° 0 mm 2 m/S 732 mmHg 83%
    08:00 +25°C° 0 mm 2 m/S 732 mmHg 78%
    09:00 +26°C° 0,7 mm 2 m/S 732 mmHg 73%
    10:00 +27°C° 0,7 mm 2 m/S 732 mmHg 68%
    11:00 +29°C° 0,7 mm 3 m/S 732 mmHg 63%
    12:00 +29°C° 0,2 mm 3 m/S 732 mmHg 61%
    13:00 +29°C° 0,2 mm 3 m/S 732 mmHg 59%
    14:00 +30°C° 0,2 mm 3 m/S 732 mmHg 58%
    15:00 +30°C° 0,8 mm 3 m/S 732 mmHg 61%
    16:00 +29°C° 0,8 mm 3 m/S 732 mmHg 64%
    17:00 +29°C° 0,8 mm 3 m/S 732 mmHg 67%
    18:00 +27°C° 0,6 mm 3 m/S 732 mmHg 72%
    19:00 +26°C° 0,6 mm 2 m/S 733 mmHg 78%
    20:00 +24°C° 0,6 mm 2 m/S 733 mmHg 83%
    21:00 +24°C° 0,2 mm 2 m/S 733 mmHg 86%
    22:00 +23°C° 0,2 mm 2 m/S 733 mmHg 88%
    23:00 +21°C° 0,2 mm 2 m/S 733 mmHg 91%

    27 Juli, Freitag

    Zeit Temperatur Niederschläge Wind Luftdruck Luftfeuchtigkeit
    00:00 +21°C° 0 mm 2 m/S 733 mmHg 92%
    01:00 +21°C° 0 mm 2 m/S 733 mmHg 93%
    02:00 +20°C° 0 mm 2 m/S 733 mmHg 94%
    03:00 +20°C° 0 mm 2 m/S 733 mmHg 94%
    04:00 +20°C° 0 mm 2 m/S 733 mmHg 95%
    05:00 +19°C° 0 mm 2 m/S 733 mmHg 95%
    06:00 +21°C° 0 mm 3 m/S 733 mmHg 91%
    07:00 +22°C° 0 mm 3 m/S 733 mmHg 88%
    08:00 +24°C° 0 mm 3 m/S 733 mmHg 84%
    09:00 +26°C° 0 mm 3 m/S 733 mmHg 78%
    10:00 +27°C° 0 mm 3 m/S 733 mmHg 71%
    11:00 +28°C° 0 mm 3 m/S 733 mmHg 65%
    12:00 +29°C° 0 mm 3 m/S 733 mmHg 63%
    13:00 +29°C° 0 mm 3 m/S 733 mmHg 60%
    14:00 +30°C° 0 mm 3 m/S 733 mmHg 58%
    15:00 +30°C° 0 mm 3 m/S 733 mmHg 60%
    16:00 +30°C° 0 mm 3 m/S 732 mmHg 62%
    17:00 +29°C° 0 mm 3 m/S 732 mmHg 64%
    18:00 +28°C° 0,4 mm 3 m/S 732 mmHg 71%
    19:00 +26°C° 0,4 mm 2 m/S 732 mmHg 77%
    20:00 +24°C° 0,4 mm 2 m/S 732 mmHg 84%
    21:00 +24°C° 0,1 mm 2 m/S 732 mmHg 86%
    22:00 +23°C° 0,1 mm 2 m/S 732 mmHg 88%
    23:00 +23°C° 0,1 mm 2 m/S 732 mmHg 90%

    28 Juli, Samstag

    Zeit Temperatur Niederschläge Wind Luftdruck Luftfeuchtigkeit
    00:00 +21°C° 0 mm 2 m/S 732 mmHg 90%
    01:00 +21°C° 0 mm 2 m/S 732 mmHg 91%
    02:00 +21°C° 0 mm 2 m/S 732 mmHg 92%
    03:00 +20°C° 0,1 mm 2 m/S 732 mmHg 93%
    04:00 +20°C° 0,1 mm 2 m/S 731 mmHg 93%
    05:00 +20°C° 0,1 mm 2 m/S 731 mmHg 94%
    06:00 +21°C° 0 mm 2 m/S 731 mmHg 90%
    07:00 +24°C° 0 mm 2 m/S 732 mmHg 86%
    08:00 +25°C° 0 mm 2 m/S 732 mmHg 82%
    09:00 +26°C° 0,2 mm 2 m/S 732 mmHg 78%
    10:00 +28°C° 0,2 mm 2 m/S 732 mmHg 73%
    11:00 +29°C° 0,2 mm 2 m/S 732 mmHg 68%
    12:00 +29°C° 0,4 mm 2 m/S 731 mmHg 67%
    13:00 +30°C° 0,4 mm 3 m/S 731 mmHg 65%
    14:00 +30°C° 0,4 mm 3 m/S 731 mmHg 64%
    15:00 +30°C° 0,2 mm 3 m/S 731 mmHg 65%
    16:00 +30°C° 0,2 mm 3 m/S 731 mmHg 66%
    17:00 +30°C° 0,2 mm 3 m/S 731 mmHg 67%
    18:00 +28°C° 0,5 mm 3 m/S 731 mmHg 73%
    19:00 +27°C° 0,5 mm 2 m/S 731 mmHg 79%
    20:00 +25°C° 0,5 mm 2 m/S 731 mmHg 85%
    21:00 +24°C° 0,2 mm 2 m/S 731 mmHg 88%
    22:00 +24°C° 0,2 mm 2 m/S 731 mmHg 90%
    23:00 +23°C° 0,2 mm 2 m/S 731 mmHg 93%
    Mehr zeigen